sat.trackr.live / text

‹ back to catalog

HULIANWANG DIGUI-158

NORAD 68132 · 2026-047D

PAYLOAD ACTIVE UNKNOWN

§ Identity

Operator
Country
PRC
Launch date
2026-03-12
Launch site
WSC
Launch vehicle
Mass (kg)
RCS (m²)

External: N2YO · Heavens-Above · Gunter

§ Orbital elements

Epoch: 2026-05-24T10:44:29.906304Z

Period
108.33 min
Inclination
50.0024°
Eccentricity
0.0000269
Mean motion
13.29330383 rev/d
Perigee alt
1,149.1 km
Apogee alt
1,149.5 km
Semi-major
7,527.4 km
B*
6.4350e-5
RAAN
141.3242°
Arg perigee
9.5925°
Mean anomaly
350.4952°
Rev number
990

§ Raw data

HULIANWANG DIGUI-1581 68132U 26047D   26144.44756836 -.00000094  00000+0  64350-4 0  99942 68132  50.0024 141.3242 0000269   9.5925 350.4952 13.29330383  9908

JSON: /api/v1/satellites/68132 · /tle

For live sub-satellite position, see the globe view (requires WebGL).

§ Visibility from observer

Set your observer location to see the next 7 days of passes ≥ 10°. The values pass through the URL so the page stays shareable.

No JS? Fill the form by hand. The geolocation button needs JavaScript.